Tracking 17782 objects as of 26-July-2016
HD Live streaming from Space Station
objects crossing your sky now

BREEZE-M R/B

Track BREEZE-M R/B now!


NORAD ID: 28925
Int'l Code: 2005-052B
Perigee: 6,181.3 km
Apogee: 35,360.5 km
Inclination: 19.5 °
Period: 741.7 minutes
Semi major axis: 27141 km
RCS: 0.6439 m2 (medium)
Launch date: December 29, 2005
Source: Commonwealth of Independent States (former USSR) (CIS)
Launch site: TYURATAM MISSILE AND SPACE COMPLEX (TTMTR)

Note: This is a ROCKET BODY
Your satellite tracking list
Your tracking list is empty





NASA's NSSDC Master Catalog

Two Line Element Set (TLE):
1 28925U 05052B   16208.51910407 -.00000010  00000-0  00000+0 0  9993
2 28925  19.4975  35.9544 5375315 132.5133 254.2136  1.94152388 75006
Source of the keplerian elements: AFSPC

N2YO: 1041